TimeMDT,TemperatureF,Dew PointF,Humidity,Sea Level PressureIn,VisibilityMPH,Wind Direction,Wind SpeedMPH,Gust SpeedMPH,PrecipitationIn,Events,Conditions,WindDirDegrees,DateUTC
12:54 AM,54.0,50.0,86,29.90,10.0,South,5.8,-,N/A,,Clear,180,2013-07-08 06:54:00
1:54 AM,52.0,50.0,93,29.90,10.0,ESE,5.8,-,N/A,,Partly Cloudy,120,2013-07-08 07:54:00
2:54 AM,55.0,51.1,86,29.89,10.0,Calm,Calm,-,N/A,,Partly Cloudy,0,2013-07-08 08:54:00
3:54 AM,53.1,51.1,93,29.88,10.0,Calm,Calm,-,N/A,,Clear,0,2013-07-08 09:54:00
4:54 AM,57.0,52.0,83,29.88,10.0,Calm,Calm,-,N/A,,Clear,0,2013-07-08 10:54:00
5:54 AM,54.0,52.0,93,29.95,10.0,SW,8.1,-,N/A,,Clear,230,2013-07-08 11:54:00
6:54 AM,55.9,52.0,87,29.97,10.0,SE,6.9,-,N/A,,Partly Cloudy,140,2013-07-08 12:54:00
7:54 AM,61.0,55.0,81,29.95,10.0,ESE,4.6,-,N/A,,Clear,120,2013-07-08 13:54:00
8:54 AM,64.9,53.1,65,29.94,10.0,Calm,Calm,-,N/A,,Clear,0,2013-07-08 14:54:00
9:54 AM,69.1,55.0,61,29.93,10.0,Calm,Calm,-,N/A,,Clear,0,2013-07-08 15:54:00
10:54 AM,72.0,55.9,57,29.91,10.0,East,13.8,21.9,N/A,,Clear,100,2013-07-08 16:54:00
11:54 AM,73.9,55.0,52,29.93,10.0,East,11.5,-,N/A,,Clear,80,2013-07-08 17:54:00
12:54 PM,75.9,55.0,48,29.92,10.0,NNE,6.9,-,N/A,,Clear,30,2013-07-08 18:54:00
1:54 PM,77.0,57.9,52,29.91,10.0,North,10.4,16.1,N/A,,Scattered Clouds,10,2013-07-08 19:54:00
2:54 PM,63.0,59.0,87,29.96,7.0,NNW,15.0,24.2,0.03,Rain,Rain,330,2013-07-08 20:54:00
3:19 PM,60.8,55.4,82,30.03,10.0,North,12.7,26.5,0.01,Rain,Light Rain,360,2013-07-08 21:19:00
3:28 PM,60.8,55.4,82,30.06,10.0,North,6.9,16.1,0.01,Rain,Light Rain,10,2013-07-08 21:28:00
3:54 PM,60.1,55.0,83,30.01,10.0,NW,5.8,-,0.01,Rain,Light Rain,320,2013-07-08 21:54:00
4:54 PM,61.0,55.9,83,29.95,10.0,SE,5.8,-,0.00,,Clear,140,2013-07-08 22:54:00
5:54 PM,66.9,57.0,70,29.92,10.0,SSE,4.6,-,N/A,,Partly Cloudy,160,2013-07-08 23:54:00
6:54 PM,68.0,57.9,70,29.92,10.0,ESE,12.7,-,N/A,,Clear,120,2013-07-09 00:54:00
7:54 PM,64.9,57.9,78,29.92,10.0,East,8.1,-,N/A,,Partly Cloudy,100,2013-07-09 01:54:00
8:54 PM,63.0,57.9,84,29.96,10.0,North,9.2,-,N/A,,Mostly Cloudy,360,2013-07-09 02:54:00
9:15 PM,60.8,53.6,77,30.07,10.0,North,8.1,18.4,N/A,,Overcast,350,2013-07-09 03:15:00
9:47 PM,57.2,55.4,94,30.09,10.0,NNE,12.7,-,N/A,,Scattered Clouds,20,2013-07-09 03:47:00
9:54 PM,57.9,55.9,93,30.02,10.0,NNE,6.9,-,N/A,,Mostly Cloudy,30,2013-07-09 03:54:00
10:33 PM,55.4,55.4,100,30.11,10.0,North,6.9,-,N/A,,Scattered Clouds,10,2013-07-09 04:33:00
10:54 PM,55.0,54.0,96,30.04,10.0,North,4.6,-,N/A,,Clear,360,2013-07-09 04:54:00
11:13 PM,55.4,53.6,94,30.13,10.0,Calm,Calm,-,N/A,,Scattered Clouds,0,2013-07-09 05:13:00
11:54 PM,55.0,54.0,96,30.04,10.0,SSW,6.9,-,N/A,,Mostly Cloudy,200,2013-07-09 05:54:00